Location: Unspecified
(0.0000°N, 0.0000°E)
Time: 13:07:03
(UTC+00:00)

Explorer 11/Cluster Stage 4 - Pass Details

Date: 18 September 2019
Orbit: 467 x 1259 km, 28.8° (Epoch: 13 October)

Event Time Altitude Azimuth Distance (km) Brightness Sun altitude
Rises 05:02:19 0° 337° (NNW) 2,509 9.0 -13.0°
Reaches altitude 10° 05:06:29 10° 23° (NNE) 1,735 8.7 -12.0°
Maximum altitude 05:07:01 10° 31° (NNE) 1,739 8.8 -11.8°
Drops below altitude 10° 05:07:32 10° 39° (NE) 1,771 9.0 -11.7°
Sets 05:12:13 0° 83° (E) 2,865 11.7 -10.5°
